Regional Weather Roundup
Issued by NWS

Home | Current Version | Previous Version | Graphics & Text | Print | Product List | Glossary On
Versions: 1 2 3 4 5 6 7 8 9 10 11 12 13 14 15 16 17 18 19 20 21 22 23 24 25 26 27 28
000
ASUS45 KBOI 100910
RWRID

IDAHO REGIONAL WEATHER ROUNDUP
NATIONAL WEATHER SERVICE BOISE ID
200 AM MST SAT DEC 10 2016

NOTE: "FAIR" INDICATES FEW OR NO CLOUDS BELOW 12000 FEET
WITH NO SIGNIFICANT WEATHER AND/OR OBSTRUCTIONS TO VISIBILITY

IDZ012-014-101000-
SOUTHWEST IDAHO


CITY           SKY/WX    TMP DP  RH WIND       PRES   REMARKS
BOISE          CLOUDY    32  31  96 W5        29.93F FOG     WCI  27
CALDWELL       MIX PCPN  31  30  96 VRB3      29.96F FOG
MOUNTAIN HOME  DRIZZLE   32  32 100 CALM      29.93F FOG
$$

IDZ016-017-101000-
SOUTHCENTRAL IDAHO


CITY           SKY/WX    TMP DP  RH WIND       PRES   REMARKS
BURLEY         LGT RAIN  35  34  96 CALM      29.94F
JEROME         LGT RAIN  38  37  97 SE10      29.95S WCI  31
TWIN FALLS     LGT RAIN  38  35  89 S8        29.95F WCI  32
$$

IDZ019>023-101000-
SOUTHEAST IDAHO


CITY           SKY/WX    TMP DP  RH WIND       PRES   REMARKS
IDAHO FALLS    FRZ RAIN  28  25  88 CALM      29.93F FOG
POCATELLO      LGT RAIN  36  33  89 S13       29.96S WCI  27
REXBURG        CLOUDY    27  26  96 CALM      29.92F FOG
$$

IDZ006-010-011-018-031-032-101000-
CENTRAL IDAHO MOUNTAINS


CITY           SKY/WX    TMP DP  RH WIND       PRES   REMARKS
MCCALL         LGT SNOW  32  30  92 S7        29.82F FOG     WCI  26
HAILEY         LGT SNOW  32  32 100 S6        29.92F WCI  26
STANLEY          N/A     34  32  92 CALM      29.85S
SALMON         CLOUDY    19  18  93 CALM      29.91F
CHALLIS        LGT SNOW  21  20  96 CALM      29.86F FOG
$$

IDZ002-004-006-007-026-101000-
NORTHERN IDAHO


CITY           SKY/WX    TMP DP  RH WIND       PRES   REMARKS
LEWISTON       CLOUDY    26  23  88 S3        29.89F
LOWELL           N/A     28  25  88 CALM      29.94F
COEUR D`ALENE  LGT SNOW  18  15  88 NE14      29.86F FOG     WCI   4
MULLAN PASS    LGT SNOW  21  19  92 VRB6      29.70F FOG     WCI  13
$$




USA.gov is the U.S. government's official web portal to all federal, state and local government web resources and services.